KB2UHF-8 Weather Reports


time (UTC)temp
C
wind
direction
speed
KPH
gust
KPH
rain 1hr
cm
rain 24hr
cm
rain mn
cm
humidity
%
barometer
mb
20260505191515 9 270 12.9 25.7 0.00 0.00 0.00 41 1009.5
20260505190515 10 248 12.9 27.4 0.00 0.00 0.00 37 1009.5
20260505185537 10 270 16.1 30.6 0.00 0.00 0.00 38 1009.6
20260505184515 10 270 12.9 22.5 0.00 0.00 0.00 35 1009.6
20260505183515 10 270 17.7 33.8 0.00 0.00 0.00 34 1009.5
20260505182515 10 293 14.5 27.4 0.00 0.00 0.00 37 1009.4
20260505181515 10 293 17.7 32.2 0.00 0.00 0.00 35 1009.2
20260505180515 11 293 16.1 35.4 0.00 0.00 0.00 36 1009.3
20260505175517 10 293 14.5 30.6 0.00 0.00 0.00 37 1009.1
20260505174517 10 315 14.5 24.1 0.00 0.00 0.00 38 1009.2
20260505173517 10 270 14.5 24.1 0.00 0.00 0.00 36 1009.3
20260505172517 10 270 19.3 32.2 0.00 0.00 0.00 38 1009.2
20260505171517 9 270 12.9 32.2 0.00 0.00 0.00 40 1009.3
20260505170517 9 248 16.1 29.0 0.00 0.00 0.00 38 1009.3
20260505165517 9 270 12.9 30.6 0.00 0.00 0.00 38 1009.2
20260505164517 8 248 14.5 25.7 0.00 0.00 0.00 38 1009.4
20260505163517 9 270 12.9 30.6 0.00 0.00 0.00 40 1009.5
20260505162517 9 315 11.3 22.5 0.00 0.00 0.00 40 1009.3
20260505161517 9 315 14.5 25.7 0.00 0.00 0.00 40 1009.3
20260505160517 8 270 12.9 27.4 0.00 0.00 0.00 37 1009.1
20260505152537 9 270 9.7 22.5 0.00 0.00 0.00 40 1009.0
20260505151517 8 315 9.7 17.7 0.00 0.00 0.00 41 1008.9
20260505150517 8 338 11.3 27.4 0.00 0.00 0.00 43 1008.9
20260505140517 7 293 9.7 17.7 0.00 0.00 0.00 49 1008.9
20260505124517 6 293 8.0 14.5 0.00 0.00 0.00 58 1008.6
20260505123517 5 270 8.0 14.5 0.00 0.00 0.00 58 1008.5
20260505122517 5 270 8.0 16.1 0.00 0.00 0.00 59 1008.5
20260505121537 5 270 6.4 14.5 0.00 0.00 0.00 61 1008.2
20260505120516 5 270 6.4 12.9 0.00 0.00 0.00 60 1008.1
20260505115517 4 270 6.4 14.5 0.00 0.00 0.00 61 1007.7
20260505114517 4 270 4.8 11.3 0.00 0.00 0.00 61 1007.4
20260505113517 3 293 4.8 6.4 0.00 0.00 0.00 63 1007.0
20260505112517 3 293 3.2 4.8 0.00 0.00 0.00 62 1006.7
20260505111517 3 293 4.8 9.7 0.00 0.00 0.00 63 1006.7
20260505110517 3 293 6.4 12.9 0.00 0.00 0.00 62 1006.8
20260505101536 4 270 3.2 6.4 0.00 0.00 0.00 61 1006.8
20260505100536 5 248 4.8 11.3 0.00 0.00 0.00 59 1006.8
20260505095517 5 248 3.2 9.7 0.00 0.00 0.00 59 1006.8
20260505094516 5 270 3.2 6.4 0.00 0.00 0.00 58 1006.7
20260505093536 5 248 4.8 9.7 0.00 0.00 0.00 58 1006.7
20260505092516 5 270 4.8 12.9 0.00 0.00 0.00 57 1006.6
20260505091516 5 270 4.8 11.3 0.00 0.00 0.00 57 1006.4
20260505090516 5 270 4.8 11.3 0.00 0.00 0.00 57 1006.2
20260505085516 5 270 4.8 12.9 0.00 0.00 0.00 60 1006.1
20260505084557 6 270 6.4 12.9 0.00 0.00 0.00 54 1006.0
20260505083516 5 248 4.8 9.7 0.00 0.00 0.00 54 1005.9
20260505082516 5 270 3.2 6.4 0.00 0.00 0.00 56 1005.9
20260505081516 6 270 4.8 6.4 0.00 0.00 0.00 57 1005.7
20260505080516 6 293 4.8 9.7 0.00 0.00 0.00 53 1005.3
20260505075516 6 293 4.8 8.0 0.00 0.00 0.00 52 1005.3
20260505074516 6 315 8.0 14.5 0.00 0.00 0.00 51 1005.1
20260505073516 6 315 6.4 14.5 0.00 0.00 0.00 50 1005.1
20260505072516 6 293 6.4 14.5 0.00 0.00 0.00 50 1005.2
20260505071516 7 315 6.4 12.9 0.00 0.00 0.00 49 1005.4
20260505070536 7 315 11.3 24.1 0.00 0.00 0.00 48 1005.4
20260505065516 7 315 11.3 20.9 0.00 0.00 0.00 49 1005.4
20260505064536 7 315 9.7 19.3 0.00 0.00 0.00 49 1005.6
20260505063516 7 293 9.7 17.7 0.00 0.00 0.00 49 1005.7
20260505062516 7 315 9.7 20.9 0.00 0.00 0.00 49 1005.6
20260505061536 7 315 12.9 25.7 0.00 0.00 0.00 49 1005.6
20260505060536 7 315 9.7 20.9 0.00 0.00 0.00 50 1005.6
20260505055516 8 315 12.9 25.7 0.00 0.00 0.00 49 1005.6
20260505054516 8 338 9.7 17.7 0.00 0.00 0.00 50 1005.5
20260505053536 8 315 11.3 22.5 0.00 0.00 0.00 49 1005.3
20260505052516 9 315 12.9 27.4 0.00 0.00 0.00 48 1005.2
20260505051516 9 293 12.9 27.4 0.00 0.00 0.00 48 1005.2
20260505050516 9 338 16.1 33.8 0.00 0.00 0.00 48 1005.1
20260505041517 10 315 12.9 30.6 0.00 0.00 0.00 49 1004.3
20260505040517 10 315 19.3 29.0 0.00 0.00 0.00 48 1004.1
20260505035537 11 293 9.7 19.3 0.00 0.00 0.00 48 1004.0
20260505034517 11 293 9.7 19.3 0.00 0.00 0.00 47 1003.9
20260505033517 11 315 12.9 32.2 0.00 0.00 0.00 46 1003.6
20260505032517 11 293 12.9 24.1 0.00 0.00 0.00 46 1003.6
20260505031517 11 270 17.7 32.2 0.00 0.00 0.00 45 1003.3
20260505030517 12 293 16.1 33.8 0.00 0.00 0.00 44 1003.1
20260505025517 12 293 14.5 25.7 0.00 0.00 0.00 44 1002.9
20260505024517 12 293 16.1 29.0 0.00 0.00 0.00 44 1002.7
20260505023518 12 293 11.3 19.3 0.00 0.00 0.00 44 1002.4
20260505022517 12 293 17.7 29.0 0.00 0.00 0.00 43 1002.2
20260505020537 13 293 11.3 25.7 0.00 0.00 0.00 42 1001.5
20260505015517 13 270 12.9 24.1 0.00 0.00 0.00 42 1001.2
20260505014516 13 293 14.5 25.7 0.00 0.00 0.00 41 1000.9
20260505013517 13 270 9.7 17.7 0.00 0.00 0.00 41 1000.8
20260505012517 13 293 9.7 20.9 0.00 0.00 0.00 40 1000.5
20260505011517 14 315 11.3 22.5 0.00 0.00 0.00 40 1000.2
20260505010516 14 293 14.5 24.1 0.00 0.00 0.00 39 1000.4
20260505005537 14 293 11.3 33.8 0.00 0.00 0.00 38 1000.4
20260505004516 15 270 11.3 25.7 0.00 0.00 0.00 37 1000.5
20260505003536 15 293 16.1 25.7 0.00 0.00 0.00 34 1000.4
20260505002516 15 270 14.5 29.0 0.00 0.00 0.00 34 1000.0
20260505001536 15 270 14.5 32.2 0.00 0.00 0.00 34 999.9
20260505000517 16 270 12.9 27.4 0.00 0.00 0.00 33 999.8
20260504235557 16 248 17.7 32.2 0.00 0.00 0.00 33 999.6
20260504234516 16 270 14.5 38.6 0.00 0.00 0.00 32 999.6
20260504233516 16 270 17.7 30.6 0.00 0.00 0.00 32 999.5
20260504232536 16 248 17.7 41.8 0.00 0.00 0.00 34 999.3
20260504231558 17 270 12.9 24.1 0.00 0.00 0.00 34 999.4
20260504230516 17 270 12.9 27.4 0.00 0.00 0.00 35 999.3
20260504225516 17 270 14.5 29.0 0.00 0.00 0.00 34 999.2
20260504224516 17 270 16.1 29.0 0.00 0.00 0.00 34 999.1
20260504223516 17 270 12.9 25.7 0.00 0.00 0.00 33 999.1
20260504222516 17 270 20.9 37.0 0.00 0.00 0.00 32 999.1
20260504221516 18 270 14.5 30.6 0.00 0.00 0.00 32 999.0
20260504220516 18 270 22.5 43.5 0.00 0.00 0.00 32 998.8
20260504215516 19 293 17.7 32.2 0.00 0.00 0.00 31 998.6
20260504214536 20 293 19.3 33.8 0.00 0.00 0.00 30 998.5
20260504213516 20 270 14.5 37.0 0.00 0.00 0.00 32 998.2
20260504212516 20 293 17.7 35.4 0.00 0.00 0.00 34 998.0
20260504211536 21 293 16.1 33.8 0.00 0.00 0.00 34 998.1
20260504210516 21 293 19.3 40.2 0.00 0.00 0.00 37 997.9
20260504205516 21 270 16.1 40.2 0.00 0.00 0.00 34 997.9
20260504204516 21 315 16.1 30.6 0.00 0.00 0.00 39 997.8
20260504203516 21 270 17.7 35.4 0.00 0.00 0.00 37 997.8
20260504202516 22 293 19.3 40.2 0.00 0.00 0.00 36 997.7
20260504201516 22 293 16.1 32.2 0.00 0.00 0.00 40 997.6
20260504200516 22 293 16.1 32.2 0.00 0.00 0.00 38 997.4
20260504195516 22 270 20.9 40.2 0.00 0.00 0.00 37 997.5
20260504194516 22 270 22.5 46.7 0.00 0.00 0.00 36 997.2
20260504193516 23 293 19.3 41.8 0.00 0.00 0.00 40 997.4
20260504192516 23 270 17.7 35.4 0.00 0.00 0.00 39 997.4